{"data":{"norad_id":53084,"intl_designator":"2022-077AT","name":"STARLINK-4319","alt_names":[],"object_type":"PAYLOAD","status":"ACTIVE","operator":null,"country":"US","launch_date":"2022-07-11","launch_site_code":"AFWTR","launch_vehicle":null,"mission":null,"orbit_class":"UNKNOWN","rcs_meters":null,"size_class":null,"mass_kg":null,"dimensions":null,"purposes":["comms"],"wikipedia_slug":null,"has_3d_model":false,"image_url":null,"decayed_at":null,"tle_current":{"epoch":"2026-09-18T22:02:35.251584Z","epoch_age_seconds":208962,"freshness":"STALE","line1":"1 53084U 22077AT  26261.91846356  .00000799  00000+0  27070-4 0  9991","line2":"2 53084  97.2857  77.6722 0001588  92.6582 267.4843 15.33436554230115","mean_motion":15.33436554,"eccentricity":0.0001588,"inclination_deg":97.2857,"raan_deg":77.6722,"arg_perigee_deg":92.6582,"mean_anomaly_deg":267.4843,"bstar":2.707e-5,"rev_number":23011,"period_min":93.906721881889,"perigee_km":464.48152354494,"apogee_km":466.65508434947,"semimajor_km":6843.7053039472,"source":"CELESTRAK","updated_at":"2026-09-20T09:00:40.177411Z"}}}